Zurück zum Katalog

STARLINK-37813

AktivKommunikationVLEO
NORAD 100289·PAYLOAD·🇺🇸 United States

Gestartet Aug 11, 2026 von Cape Canaveral Space Force Station

Loading…

Nächste Überflüge (nächste 24 Stunden)

TLE

VeraltetSource: Space-Track

Epoche: Sep 8, 2026, 10:43 UTC

1 A0289U 26183T   26251.44665774  .00210979  00000-0  13422-2 0  9990
2 A0289  53.1601 316.5692 0001118 118.9474 241.1659 15.75310827  4410

Verfolge STARLINK-37813 in Echtzeit mit AllMySat

Download on the App Store